Flag for Canada Weather past 2 weeks in Resolute Bay, Nunavut, Canada

27 °F


Feels Like: 16 °F
Forecast: N/A
Wind: 12 mph from Southwest

Location: Resolute

Current Time: Oct 4, 2015 at 5:04:25 PM

Latest Report: Oct 4, 2015 at 4:00 PM

Visibility: 8 mi

Pressure: 29.88 "Hg

Humidity: 93%

Dew point: 25 °F

Location of Resolute BayLocation

Historic Weather in Resolute Bay — Graph


Resolute Bay temperature yesterday

Maximum temperature yesterday: 28 °F (at 12:00 AM)
Minimum temperature yesterday: 25 °F (at 6:00 PM)
Average temperature yesterday: 27 °F

Past Weeks' High & Low Weather Summary

High39 °F (Oct 2, 6:00 AM)100% (Sep 19, 3:00 PM)30.44 "Hg (Sep 19, 3:00 PM)
Low12 °F (Sep 28, 4:00 AM)19% (Sep 22, 4:00 PM)28.95 "Hg (Oct 1, 4:00 PM)
Average24 °F90%29.85 "Hg
* Reported Sep 19 3:00 PM — Oct 4 3:00 PM, Resolute Bay, Weather by CustomWeather, © 2015

Note: Actual official high and low records may vary slightly from our data, if they occured in-between our weather recording intervals... More about our weather records


Resolute Bay weather history for previous 24 hours

Time TempWeatherWind HumidityBarometerVisibility
3:00 PM
Sun, Oct 4
27 °FLow clouds.14 mph93%29.88 "Hg8 mi
2:00 PM27 °FOvercast.16 mph93%29.88 "Hg10 mi
1:00 PM27 °FOvercast.16 mph93%29.88 "Hg10 mi
12:00 PM27 °FLight snow. Overcast.16 mph93%29.88 "Hg8 mi
11:00 AM27 °FOvercast.15 mph93%29.88 "Hg7 mi
10:00 AM25 °FOvercast.21 mph93%29.88 "Hg10 mi
9:00 AM27 °FOvercast.17 mph86%29.89 "Hg10 mi
8:00 AM27 °FMostly cloudy.21 mph93%29.90 "Hg10 mi
7:00 AM27 °FOvercast.21 mph93%29.90 "Hg10 mi
6:00 AM27 °FLight snow. Overcast.21 mph93%29.90 "Hg10 mi
5:54 AM27 °FLight snow. Overcast.17 mph93%29.90 "Hg10 mi
5:00 AM27 °FPartly cloudy.18 mph93%29.91 "Hg10 mi
4:00 AM27 °FLight snow. Partly cloudy.20 mph93%29.90 "Hg5 mi
3:00 AM27 °FLight snow. Partly cloudy.24 mph93%29.90 "Hg5 mi
2:00 AM27 °FSnow flurries. Mostly cloudy.21 mph93%29.90 "Hg2 mi
1:00 AM27 °FLight snow. Mostly cloudy.24 mph93%29.91 "Hg5 mi
12:00 AM27 °FLight snow. Mostly cloudy.21 mph93%29.91 "Hg5 mi
11:00 PM
Sat, Oct 3
27 °FLight snow. Mostly cloudy.20 mph93%29.91 "Hg5 mi
10:00 PM27 °FLight snow. Mostly cloudy.16 mph86%29.92 "Hg5 mi
9:00 PM27 °FLight snow. Overcast.16 mph93%29.92 "Hg5 mi
8:00 PM27 °FOvercast.22 mph86%29.92 "Hg8 mi
7:00 PM27 °FOvercast.22 mph86%29.93 "Hg8 mi
6:00 PM25 °FPartly sunny.20 mph93%29.93 "Hg8 mi
5:00 PM27 °FMostly cloudy.18 mph93%29.93 "Hg8 mi
Weather by CustomWeather, © 2015

See weather overviewHow to use our weather pages